When you browse on this site, cookies collect data to enhance your experience and personalize the content and advertising you see.
Visit our Privacy Policy to learn more. By continuing to use the site, you agree to this use of cookies and data.
EN

Hourly Weather Miescisko

Today, 27 September, Sunday

Time Temperature Precipitation Wind Pressure Humidity
00:00 +11°C° 0.1 mm 3 mps 740 mmHg 86%
01:00 +11°C° 0.1 mm 3 mps 741 mmHg 86%
02:00 +10°C° 0.3 mm 3 mps 741 mmHg 87%
03:00 +10°C° 0.3 mm 3 mps 741 mmHg 88%
04:00 +10°C° 0.3 mm 4 mps 741 mmHg 88%
05:00 +8°C° 1.7 mm 4 mps 741 mmHg 89%
06:00 +8°C° 1.7 mm 5 mps 741 mmHg 90%
07:00 +8°C° 1.7 mm 6 mps 741 mmHg 91%
08:00 +8°C° 0.9 mm 6 mps 741 mmHg 91%
09:00 +8°C° 0.9 mm 6 mps 741 mmHg 91%
10:00 +8°C° 0.9 mm 6 mps 742 mmHg 90%
11:00 +8°C° 0.8 mm 6 mps 742 mmHg 91%
12:00 +8°C° 0.8 mm 7 mps 742 mmHg 91%
13:00 +8°C° 0.8 mm 7 mps 743 mmHg 91%
14:00 +8°C° 1 mm 7 mps 743 mmHg 91%
15:00 +8°C° 1 mm 7 mps 743 mmHg 91%
16:00 +8°C° 1 mm 6 mps 743 mmHg 91%
17:00 +8°C° 0.4 mm 6 mps 744 mmHg 90%
18:00 +8°C° 0.4 mm 5 mps 744 mmHg 90%
19:00 +8°C° 0.4 mm 5 mps 744 mmHg 90%
20:00 +8°C° 0.1 mm 5 mps 745 mmHg 90%
21:00 +8°C° 0.1 mm 5 mps 746 mmHg 90%
22:00 +9°C° 0.1 mm 5 mps 747 mmHg 90%
23:00 +9°C° 0.2 mm 5 mps 747 mmHg 89%

Tomorrow, 28 September, Monday

Time Temperature Precipitation Wind Pressure Humidity
00:00 +9°C° 0.2 mm 5 mps 747 mmHg 88%
01:00 +9°C° 0.2 mm 5 mps 747 mmHg 87%
02:00 +10°C° 0 mm 4 mps 747 mmHg 87%
03:00 +10°C° 0 mm 4 mps 748 mmHg 88%
04:00 +10°C° 0 mm 3 mps 748 mmHg 88%
05:00 +10°C° 0 mm 3 mps 748 mmHg 87%
06:00 +9°C° 0 mm 3 mps 748 mmHg 86%
07:00 +9°C° 0 mm 3 mps 749 mmHg 85%
08:00 +11°C° 0 mm 4 mps 749 mmHg 79%
09:00 +12°C° 0 mm 4 mps 749 mmHg 73%
10:00 +14°C° 0 mm 4 mps 750 mmHg 67%
11:00 +15°C° 0 mm 4 mps 750 mmHg 62%
12:00 +17°C° 0 mm 4 mps 750 mmHg 57%
13:00 +18°C° 0 mm 4 mps 750 mmHg 52%
14:00 +18°C° 0 mm 3 mps 750 mmHg 53%
15:00 +18°C° 0 mm 2 mps 750 mmHg 53%
16:00 +18°C° 0 mm 2 mps 750 mmHg 53%
17:00 +17°C° 0 mm 2 mps 750 mmHg 56%
18:00 +16°C° 0 mm 1 mps 750 mmHg 58%
19:00 +14°C° 0 mm 1 mps 751 mmHg 61%
20:00 +14°C° 0 mm 1 mps 751 mmHg 62%
21:00 +14°C° 0 mm 1 mps 751 mmHg 62%
22:00 +13°C° 0 mm 0 mps 751 mmHg 62%
23:00 +14°C° 0 mm 1 mps 751 mmHg 63%

Day after tomorrow, 29 September, Tuesday

Time Temperature Precipitation Wind Pressure Humidity
00:00 +14°C° 0 mm 1 mps 751 mmHg 64%
01:00 +14°C° 0 mm 1 mps 751 mmHg 65%
02:00 +14°C° 0 mm 1 mps 751 mmHg 67%
03:00 +14°C° 0 mm 1 mps 751 mmHg 69%
04:00 +14°C° 0 mm 1 mps 751 mmHg 70%
05:00 +13°C° 0 mm 1 mps 751 mmHg 72%
06:00 +13°C° 0 mm 1 mps 752 mmHg 74%
07:00 +13°C° 0 mm 1 mps 752 mmHg 76%
08:00 +14°C° 0 mm 1 mps 752 mmHg 77%
09:00 +14°C° 0 mm 1 mps 752 mmHg 78%
10:00 +14°C° 0 mm 1 mps 752 mmHg 79%
11:00 +15°C° 0 mm 1 mps 752 mmHg 77%
12:00 +15°C° 0 mm 2 mps 752 mmHg 74%
13:00 +16°C° 0 mm 2 mps 752 mmHg 71%
14:00 +16°C° 0 mm 2 mps 752 mmHg 70%
15:00 +17°C° 0 mm 2 mps 752 mmHg 69%
16:00 +17°C° 0 mm 2 mps 752 mmHg 68%
17:00 +16°C° 0 mm 2 mps 752 mmHg 72%
18:00 +15°C° 0 mm 2 mps 752 mmHg 76%
19:00 +14°C° 0 mm 2 mps 753 mmHg 81%
20:00 +13°C° 0 mm 2 mps 753 mmHg 81%
21:00 +13°C° 0 mm 2 mps 753 mmHg 81%
22:00 +12°C° 0 mm 2 mps 753 mmHg 82%
23:00 +13°C° 0 mm 2 mps 753 mmHg 82%

30 September, Wednesday

Time Temperature Precipitation Wind Pressure Humidity
00:00 +13°C° 0 mm 2 mps 753 mmHg 81%
01:00 +13°C° 0 mm 2 mps 752 mmHg 81%
02:00 +12°C° 0 mm 2 mps 752 mmHg 84%
03:00 +12°C° 0 mm 2 mps 752 mmHg 87%
04:00 +12°C° 0 mm 2 mps 752 mmHg 90%
05:00 +12°C° 0 mm 2 mps 752 mmHg 90%
06:00 +13°C° 0 mm 2 mps 752 mmHg 91%
07:00 +13°C° 0 mm 2 mps 752 mmHg 91%
08:00 +14°C° 0 mm 2 mps 752 mmHg 87%
09:00 +15°C° 0 mm 2 mps 752 mmHg 84%
10:00 +16°C° 0 mm 2 mps 752 mmHg 80%
11:00 +16°C° 0 mm 2 mps 752 mmHg 79%
12:00 +16°C° 0 mm 2 mps 751 mmHg 77%
13:00 +17°C° 0 mm 2 mps 751 mmHg 76%
14:00 +17°C° 0 mm 2 mps 751 mmHg 75%
15:00 +17°C° 0 mm 2 mps 750 mmHg 75%
16:00 +18°C° 0 mm 2 mps 750 mmHg 74%
17:00 +16°C° 0 mm 3 mps 750 mmHg 78%
18:00 +14°C° 0 mm 3 mps 750 mmHg 82%
19:00 +13°C° 0 mm 3 mps 750 mmHg 86%
20:00 +14°C° 0 mm 2 mps 750 mmHg 87%
21:00 +13°C° 0 mm 2 mps 750 mmHg 89%
22:00 +13°C° 0 mm 2 mps 749 mmHg 90%
23:00 +13°C° 0 mm 2 mps 749 mmHg 91%

1 October, Thursday

Time Temperature Precipitation Wind Pressure Humidity
00:00 +13°C° 0 mm 2 mps 749 mmHg 92%
01:00 +12°C° 0 mm 2 mps 749 mmHg 93%
02:00 +12°C° 0 mm 2 mps 748 mmHg 94%
03:00 +12°C° 0 mm 2 mps 748 mmHg 94%
04:00 +12°C° 0 mm 2 mps 748 mmHg 95%
05:00 +13°C° 0 mm 2 mps 748 mmHg 94%
06:00 +13°C° 0 mm 2 mps 748 mmHg 94%
07:00 +13°C° 0 mm 2 mps 747 mmHg 93%
08:00 +14°C° 0 mm 2 mps 747 mmHg 89%
09:00 +15°C° 0 mm 2 mps 747 mmHg 85%
10:00 +16°C° 0 mm 2 mps 747 mmHg 81%
11:00 +16°C° 0 mm 2 mps 746 mmHg 77%
12:00 +17°C° 0 mm 2 mps 746 mmHg 74%
13:00 +17°C° 0 mm 2 mps 746 mmHg 71%
14:00 +17°C° 0 mm 2 mps 746 mmHg 73%
15:00 +16°C° 0 mm 2 mps 745 mmHg 75%
16:00 +16°C° 0 mm 2 mps 745 mmHg 77%
17:00 +15°C° 0 mm 1 mps 745 mmHg 80%
18:00 +15°C° 0 mm 1 mps 745 mmHg 82%
19:00 +14°C° 0 mm 1 mps 744 mmHg 84%
20:00 +14°C° 0 mm 1 mps 744 mmHg 85%
21:00 +14°C° 0 mm 1 mps 744 mmHg 85%
22:00 +13°C° 0 mm 1 mps 744 mmHg 86%
23:00 +13°C° 0.3 mm 1 mps 743 mmHg 87%

2 October, Friday

Time Temperature Precipitation Wind Pressure Humidity
00:00 +13°C° 0.3 mm 1 mps 743 mmHg 89%
01:00 +13°C° 0.3 mm 2 mps 742 mmHg 90%
02:00 +13°C° 0.3 mm 1 mps 742 mmHg 91%
03:00 +13°C° 0.3 mm 1 mps 742 mmHg 93%
04:00 +13°C° 0.3 mm 1 mps 742 mmHg 94%
05:00 +13°C° 0.2 mm 1 mps 742 mmHg 94%
06:00 +13°C° 0.2 mm 1 mps 742 mmHg 94%
07:00 +13°C° 0.2 mm 1 mps 742 mmHg 95%
08:00 +13°C° 0.1 mm 1 mps 742 mmHg 93%
09:00 +13°C° 0.1 mm 1 mps 742 mmHg 92%
10:00 +13°C° 0.1 mm 1 mps 742 mmHg 91%
11:00 +14°C° 0.1 mm 1 mps 742 mmHg 89%
12:00 +14°C° 0.1 mm 1 mps 742 mmHg 88%
13:00 +14°C° 0.1 mm 2 mps 742 mmHg 86%
14:00 +14°C° 0 mm 2 mps 742 mmHg 87%
15:00 +14°C° 0 mm 2 mps 742 mmHg 88%
16:00 +14°C° 0 mm 2 mps 742 mmHg 89%
17:00 +14°C° 0 mm 2 mps 742 mmHg 90%
18:00 +12°C° 0 mm 3 mps 742 mmHg 91%
19:00 +12°C° 0 mm 3 mps 742 mmHg 92%
20:00 +12°C° 0 mm 3 mps 742 mmHg 93%
21:00 +12°C° 0 mm 3 mps 742 mmHg 93%
22:00 +11°C° 0 mm 3 mps 742 mmHg 93%
23:00 +11°C° 0 mm 3 mps 742 mmHg 93%
Show more